03-03-2022, 00:00:05,    141,    0.0,    5.2,   0.00,   0.00, 1013.0,   75.7, -999.0
03-03-2022, 00:00:15,    142,    0.0,    5.2,   0.00,   0.00, 1013.0,   75.5, -999.0
03-03-2022, 00:00:25,    142,    0.0,    5.1,   0.00,   0.00, 1013.0,   75.4, -999.0
03-03-2022, 00:00:35,    142,    0.0,    5.1,   0.00,   0.00, 1013.0,   75.4, -999.0
03-03-2022, 00:00:45,    141,    0.0,    5.2,   0.00,   0.00, 1012.9,   75.4, -999.0
03-03-2022, 00:00:55,    141,    0.0,    5.2,   0.00,   0.00, 1013.0,   75.4, -999.0
03-03-2022, 00:01:05,    141,    0.0,    5.1,   0.00,   0.00, 1013.0,   75.4, -999.0
03-03-2022, 00:01:15,    141,    0.0,    4.9,   0.00,   0.00, 1013.0,   75.5, -999.0
03-03-2022, 00:01:25,    141,    0.0,    5.1,   0.00,   0.00, 1013.0,   75.5, -999.0
03-03-2022, 00:01:35,    141,    0.0,    5.0,   0.00,   0.00, 1013.0,   75.4, -999.0
03-03-2022, 00:01:45,    141,    0.0,    5.0,   0.00,   0.00, 1013.0,   75.4, -999.0
03-03-2022, 00:01:55,    141,    0.0,    4.9,   0.00,   0.00, 1012.9,   75.2, -999.0
03-03-2022, 00:02:04,    141,    0.0,    4.9,   0.00,   0.00, 1012.9,   75.2, -999.0
03-03-2022, 00:02:15,    141,    0.0,    4.8,   0.00,   0.00, 1013.0,   75.1, -999.0
03-03-2022, 00:02:25,    141,    0.0,    4.9,   0.00,   0.00, 1013.0,   75.2, -999.0
03-03-2022, 00:02:34,    141,    0.0,    4.9,   0.00,   0.00, 1013.0,   75.3, -999.0
03-03-2022, 00:02:44,    141,    0.0,    4.9,   0.00,   0.00, 1013.0,   75.4, -999.0
03-03-2022, 00:02:55,    141,    0.0,    4.8,   0.00,   0.00, 1013.0,   75.6, -999.0
03-03-2022, 00:03:04,    141,    0.0,    4.9,   0.00,   0.00, 1013.0,   75.6, -999.0
03-03-2022, 00:03:14,    141,    0.0,    4.9,   0.00,   0.00, 1013.0,   75.6, -999.0
03-03-2022, 00:03:24,    141,    0.0,    4.9,   0.00,   0.00, 1013.0,   75.6, -999.0
03-03-2022, 00:03:34,    141,    0.0,    4.9,   0.00,   0.00, 1013.0,   75.7, -999.0
03-03-2022, 00:03:44,    142,    0.0,    5.0,   0.00,   0.00, 1013.0,   75.8, -999.0
03-03-2022, 00:03:54,    141,    0.0,    4.9,   0.00,   0.00, 1013.0,   75.6, -999.0
03-03-2022, 00:04:04,    141,    0.0,    4.8,   0.00,   0.00, 1013.0,   75.7, -999.0
03-03-2022, 00:04:14,    141,    0.0,    4.9,   0.00,   0.00, 1013.0,   75.6, -999.0
03-03-2022, 00:04:24,    141,    0.0,    4.9,   0.00,   0.00, 1012.9,   75.6, -999.0
03-03-2022, 00:04:34,    141,    0.0,    4.9,   0.00,   0.00, 1012.9,   75.9, -999.0
03-03-2022, 00:04:44,    142,    0.0,    5.0,   0.00,   0.00, 1013.0,   76.0, -999.0
03-03-2022, 00:04:54,    141,    0.0,    5.0,   0.00,   0.00, 1013.0,   76.0, -999.0
03-03-2022, 00:05:04,    141,    0.0,    5.0,   0.00,   0.00, 1013.0,   76.1, -999.0
03-03-2022, 00:05:13,    141,    0.0,    5.1,   0.00,   0.00, 1013.0,   76.0, -999.0
03-03-2022, 00:05:24,    142,    0.5,    5.1,   0.00,   0.00, 1013.0,   76.2, -999.0
03-03-2022, 00:05:34,    141,    0.6,    5.2,   0.00,   0.00, 1013.0,   76.2, -999.0
03-03-2022, 00:05:43,    141,    0.0,    5.0,   0.00,   0.00, 1013.0,   75.8, -999.0
03-03-2022, 00:05:54,    141,    0.0,    5.1,   0.00,   0.00, 1013.0,   75.9, -999.0
03-03-2022, 00:06:03,    146,    1.2,    5.2,   0.00,   0.00, 1013.1,   76.5, -999.0
03-03-2022, 00:06:13,    146,    0.3,    5.2,   0.00,   0.00, 1013.0,   76.2, -999.0
03-03-2022, 00:06:23,    145,    0.0,    5.1,   0.00,   0.00, 1012.9,   75.8, -999.0
03-03-2022, 00:06:33,    145,    0.0,    5.1,   0.00,   0.00, 1013.0,   75.7, -999.0
03-03-2022, 00:06:43,    145,    0.3,    5.0,   0.00,   0.00, 1013.0,   75.9, -999.0
03-03-2022, 00:06:53,    146,    0.0,    5.0,   0.00,   0.00, 1013.0,   75.4, -999.0
03-03-2022, 00:07:03,    146,    0.0,    5.0,   0.00,   0.00, 1013.0,   75.5, -999.0
03-03-2022, 00:07:13,    146,    0.0,    5.1,   0.00,   0.00, 1013.0,   75.6, -999.0
03-03-2022, 00:07:23,    146,    0.0,    5.0,   0.00,   0.00, 1013.0,   75.6, -999.0
03-03-2022, 00:07:33,    117,    0.3,    5.0,   0.00,   0.00, 1013.0,   75.9, -999.0
03-03-2022, 00:07:43,    116,    0.1,    5.0,   0.00,   0.00, 1013.0,   75.7, -999.0
03-03-2022, 00:07:53,    116,    0.0,    5.1,   0.00,   0.00, 1013.0,   75.7, -999.0
03-03-2022, 00:08:03,    116,    0.0,    5.1,   0.00,   0.00, 1013.0,   75.7, -999.0
03-03-2022, 00:08:13,    116,    0.0,    5.1,   0.00,   0.00, 1013.0,   75.7, -999.0
03-03-2022, 00:08:23,    117,    0.0,    5.0,   0.00,   0.00, 1012.9,   75.5, -999.0
03-03-2022, 00:08:33,    116,    0.0,    5.0,   0.00,   0.00, 1013.0,   75.5, -999.0
03-03-2022, 00:08:42,    116,    0.0,    5.0,   0.00,   0.00, 1013.0,   75.5, -999.0
03-03-2022, 00:08:52,    117,    0.0,    5.0,   0.00,   0.00, 1013.0,   75.5, -999.0
03-03-2022, 00:09:03,    116,    0.4,    5.1,   0.00,   0.00, 1013.0,   75.6, -999.0
03-03-2022, 00:09:12,    116,    0.0,    5.1,   0.00,   0.00, 1013.0,   75.6, -999.0
03-03-2022, 00:09:22,    116,    0.0,    5.1,   0.00,   0.00, 1013.0,   75.6, -999.0
03-03-2022, 00:09:32,    116,    0.0,    5.0,   0.00,   0.00, 1012.9,   75.6, -999.0
03-03-2022, 00:09:42,    116,    0.0,    5.0,   0.00,   0.00, 1013.0,   75.4, -999.0
03-03-2022, 00:09:52,    116,    0.0,    5.0,   0.00,   0.00, 1013.0,   75.4, -999.0
03-03-2022, 00:10:02,    116,    0.0,    4.9,   0.00,   0.00, 1013.0,   75.3, -999.0
03-03-2022, 00:10:12,    116,    0.0,    4.9,   0.00,   0.00, 1012.9,   75.3, -999.0
03-03-2022, 00:10:22,    116,    0.0,    4.9,   0.00,   0.00, 1013.0,   75.4, -999.0
03-03-2022, 00:10:32,    117,    0.0,    5.0,   0.00,   0.00, 1012.9,   75.5, -999.0
03-03-2022, 00:10:42,    116,    0.0,    5.0,   0.00,   0.00, 1013.0,   75.8, -999.0
03-03-2022, 00:10:52,    116,    0.0,    5.1,   0.00,   0.00, 1012.9,   75.8, -999.0
03-03-2022, 00:11:02,    116,    0.0,    5.1,   0.00,   0.00, 1012.9,   75.8, -999.0
03-03-2022, 00:11:12,    116,    0.0,    5.1,   0.00,   0.00, 1012.9,   75.7, -999.0
03-03-2022, 00:11:21,    116,    0.0,    5.1,   0.00,   0.00, 1012.9,   75.6, -999.0
03-03-2022, 00:11:32,    116,    0.0,    5.0,   0.00,   0.00, 1012.9,   75.5, -999.0
03-03-2022, 00:11:42,    116,    0.0,    5.0,   0.00,   0.00, 1012.9,   75.5, -999.0
03-03-2022, 00:11:51,    116,    0.0,    5.0,   0.00,   0.00, 1012.9,   75.6, -999.0
03-03-2022, 00:12:01,    116,    0.0,    5.0,   0.00,   0.00, 1012.9,   75.6, -999.0
03-03-2022, 00:12:12,    117,    0.1,    5.0,   0.00,   0.00, 1012.9,   75.8, -999.0
03-03-2022, 00:12:21,    116,    0.5,    5.2,   0.00,   0.00, 1013.0,   76.0, -999.0
03-03-2022, 00:12:31,    125,    0.0,    5.1,   0.00,   0.00, 1012.9,   75.7, -999.0
03-03-2022, 00:12:41,    125,    0.0,    5.1,   0.00,   0.00, 1012.9,   75.7, -999.0
03-03-2022, 00:12:51,    125,    0.0,    5.0,   0.00,   0.00, 1012.9,   75.5, -999.0
03-03-2022, 00:13:01,    128,    0.0,    5.0,   0.00,   0.00, 1012.9,   75.5, -999.0
03-03-2022, 00:13:11,    128,    0.0,    5.0,   0.00,   0.00, 1012.9,   75.4, -999.0
03-03-2022, 00:13:21,    128,    0.0,    5.0,   0.00,   0.00, 1012.9,   75.3, -999.0
03-03-2022, 00:13:31,    128,    0.0,    4.9,   0.00,   0.00, 1012.9,   75.5, -999.0
03-03-2022, 00:13:41,    128,    0.6,    5.0,   0.00,   0.00, 1012.9,   75.6, -999.0
03-03-2022, 00:13:51,    128,    0.3,    5.0,   0.00,   0.00, 1012.9,   75.5, -999.0
03-03-2022, 00:14:01,    128,    0.0,    4.9,   0.00,   0.00, 1012.9,   75.5, -999.0
03-03-2022, 00:14:11,    147,    0.0,    5.0,   0.00,   0.00, 1012.9,   75.7, -999.0
03-03-2022, 00:14:21,    147,    0.0,    5.0,   0.00,   0.00, 1012.9,   75.6, -999.0
03-03-2022, 00:14:31,    147,    0.0,    4.9,   0.00,   0.00, 1012.9,   75.5, -999.0
03-03-2022, 00:14:41,    147,    0.0,    5.0,   0.00,   0.00, 1012.9,   75.6, -999.0
03-03-2022, 00:14:51,    147,    0.0,    5.0,   0.00,   0.00, 1012.9,   75.8, -999.0
03-03-2022, 00:15:00,    147,    0.0,    5.1,   0.00,   0.00, 1012.9,   76.0, -999.0
03-03-2022, 00:15:11,    124,    0.2,    5.1,   0.00,   0.00, 1012.9,   76.4, -999.0
03-03-2022, 00:15:20,    105,    1.0,    5.2,   0.00,   0.00, 1013.0,   76.4, -999.0
03-03-2022, 00:15:30,    109,    0.6,    5.2,   0.00,   0.00, 1012.9,   76.7, -999.0
03-03-2022, 00:15:40,    108,    0.1,    5.1,   0.00,   0.00, 1012.9,   76.2, -999.0
03-03-2022, 00:15:50,    125,    0.8,    5.1,   0.00,   0.00, 1012.9,   76.3, -999.0
03-03-2022, 00:16:00,    124,    0.2,    5.2,   0.00,   0.00, 1012.9,   76.2, -999.0
03-03-2022, 00:16:10,    124,    0.0,    5.1,   0.00,   0.00, 1012.8,   76.0, -999.0
03-03-2022, 00:16:20,    124,    0.2,    5.1,   0.00,   0.00, 1012.9,   76.1, -999.0
03-03-2022, 00:16:30,    124,    0.9,    5.2,   0.00,   0.00, 1012.9,   75.8, -999.0
03-03-2022, 00:16:40,    134,    0.4,    5.1,   0.00,   0.00, 1012.9,   75.6, -999.0
03-03-2022, 00:16:50,    133,    0.0,    5.0,   0.00,   0.00, 1012.8,   75.3, -999.0
03-03-2022, 00:17:00,    133,    0.0,    5.1,   0.00,   0.00, 1012.8,   75.4, -999.0
03-03-2022, 00:17:10,    133,    0.2,    5.1,   0.00,   0.00, 1012.9,   75.6, -999.0
03-03-2022, 00:17:20,    133,    0.0,    5.1,   0.00,   0.00, 1012.7,   75.6, -999.0
03-03-2022, 00:17:30,    133,    0.0,    5.1,   0.00,   0.00, 1012.8,   75.6, -999.0
03-03-2022, 00:17:40,    133,    0.0,    5.2,   0.00,   0.00, 1012.8,   75.9, -999.0
03-03-2022, 00:17:50,    133,    0.4,    5.2,   0.00,   0.00, 1012.9,   76.0, -999.0
03-03-2022, 00:17:59,    133,    0.0,    5.1,   0.00,   0.00, 1012.8,   75.5, -999.0
03-03-2022, 00:18:09,    133,    0.0,    5.1,   0.00,   0.00, 1012.8,   75.5, -999.0
03-03-2022, 00:18:20,    139,    0.0,    5.1,   0.00,   0.00, 1012.8,   75.7, -999.0
03-03-2022, 00:18:29,    139,    0.5,    5.2,   0.00,   0.00, 1012.9,   75.8, -999.0
03-03-2022, 00:18:39,    139,    0.5,    5.2,   0.00,   0.00, 1012.9,   75.7, -999.0
03-03-2022, 00:18:50,    139,    0.0,    5.1,   0.00,   0.00, 1012.8,   75.4, -999.0
03-03-2022, 00:18:59,    138,    0.1,    5.2,   0.00,   0.00, 1012.9,   75.7, -999.0
03-03-2022, 00:19:09,    138,    0.0,    5.1,   0.00,   0.00, 1012.8,   75.5, -999.0
03-03-2022, 00:19:19,    138,    0.0,    5.1,   0.00,   0.00, 1012.8,   75.3, -999.0
03-03-2022, 00:19:29,    138,    0.0,    5.0,   0.00,   0.00, 1012.8,   75.5, -999.0
03-03-2022, 00:19:39,    138,    0.0,    5.0,   0.00,   0.00, 1012.8,   75.5, -999.0
03-03-2022, 00:19:49,    138,    0.2,    5.1,   0.00,   0.00, 1012.9,   75.6, -999.0
03-03-2022, 00:19:59,    137,    0.4,    5.1,   0.00,   0.00, 1012.9,   75.7, -999.0
03-03-2022, 00:20:09,    138,    0.0,    5.0,   0.00,   0.00, 1012.8,   75.2, -999.0
03-03-2022, 00:20:19,    137,    0.0,    5.0,   0.00,   0.00, 1012.8,   75.5, -999.0
03-03-2022, 00:20:29,    137,    0.0,    5.0,   0.00,   0.00, 1012.8,   75.5, -999.0
03-03-2022, 00:20:39,    137,    0.0,    5.0,   0.00,   0.00, 1012.8,   75.5, -999.0
03-03-2022, 00:20:49,    137,    0.0,    5.0,   0.00,   0.00, 1012.8,   75.5, -999.0
03-03-2022, 00:20:59,    137,    0.0,    5.0,   0.00,   0.00, 1012.8,   75.5, -999.0
03-03-2022, 00:21:08,    137,    0.0,    4.9,   0.00,   0.00, 1012.8,   75.5, -999.0
03-03-2022, 00:21:19,    137,    0.0,    4.9,   0.00,   0.00, 1012.8,   75.5, -999.0
03-03-2022, 00:21:29,    137,    0.7,    5.0,   0.00,   0.00, 1012.9,   75.7, -999.0
03-03-2022, 00:21:38,    136,    0.8,    5.1,   0.00,   0.00, 1012.9,   76.1, -999.0
03-03-2022, 00:21:48,    142,    0.6,    5.0,   0.00,   0.00, 1012.9,   75.9, -999.0
03-03-2022, 00:21:59,    141,    0.1,    4.9,   0.00,   0.00, 1012.9,   75.6, -999.0
03-03-2022, 00:22:08,    142,    0.0,    4.8,   0.00,   0.00, 1012.9,   75.5, -999.0
03-03-2022, 00:22:18,    146,    0.2,    4.9,   0.00,   0.00, 1012.9,   75.8, -999.0
03-03-2022, 00:22:28,    154,    0.6,    5.0,   0.00,   0.00, 1012.9,   76.3, -999.0
03-03-2022, 00:22:38,    154,    0.0,    4.9,   0.00,   0.00, 1012.9,   75.7, -999.0
03-03-2022, 00:22:48,    154,    0.1,    4.9,   0.00,   0.00, 1012.9,   75.7, -999.0
03-03-2022, 00:22:58,    153,    0.2,    4.9,   0.00,   0.00, 1012.9,   75.8, -999.0
03-03-2022, 00:23:08,    131,    1.0,    4.9,   0.00,   0.00, 1012.9,   76.3, -999.0
03-03-2022, 00:23:18,    102,    1.7,    5.0,   0.00,   0.00, 1012.9,   76.5, -999.0
03-03-2022, 00:23:28,    102,    0.4,    5.0,   0.00,   0.00, 1012.9,   76.4, -999.0
03-03-2022, 00:23:38,    102,    0.0,    4.9,   0.00,   0.00, 1012.8,   76.1, -999.0
03-03-2022, 00:23:48,    101,    0.0,    4.9,   0.00,   0.00, 1012.8,   76.2, -999.0
03-03-2022, 00:23:58,    102,    0.0,    5.0,   0.00,   0.00, 1012.8,   76.1, -999.0
03-03-2022, 00:24:08,    101,    0.0,    4.9,   0.00,   0.00, 1012.8,   76.1, -999.0
03-03-2022, 00:24:17,    101,    0.0,    4.9,   0.00,   0.00, 1012.8,   76.2, -999.0
03-03-2022, 00:24:28,    102,    0.0,    4.9,   0.00,   0.00, 1012.8,   76.0, -999.0
03-03-2022, 00:24:38,    102,    0.0,    4.9,   0.00,   0.00, 1012.8,   76.1, -999.0
03-03-2022, 00:24:47,    102,    0.0,    4.9,   0.00,   0.00, 1012.8,   76.1, -999.0
03-03-2022, 00:24:57,    101,    0.0,    4.9,   0.00,   0.00, 1012.8,   76.1, -999.0
03-03-2022, 00:25:07,    102,    0.0,    4.9,   0.00,   0.00, 1012.8,   76.1, -999.0
03-03-2022, 00:25:17,    102,    0.0,    4.8,   0.00,   0.00, 1012.8,   76.1, -999.0
03-03-2022, 00:25:27,    101,    0.0,    4.9,   0.00,   0.00, 1012.8,   76.1, -999.0
03-03-2022, 00:25:37,    101,    0.0,    4.9,   0.00,   0.00, 1012.8,   76.2, -999.0
03-03-2022, 00:25:47,    102,    0.0,    4.9,   0.00,   0.00, 1012.8,   76.2, -999.0
03-03-2022, 00:25:57,    163,    0.1,    4.9,   0.00,   0.00, 1012.9,   76.6, -999.0
03-03-2022, 00:26:07,    163,    0.6,    5.0,   0.00,   0.00, 1012.9,   76.6, -999.0
03-03-2022, 00:26:17,    162,    0.1,    4.9,   0.00,   0.00, 1012.8,   76.3, -999.0
03-03-2022, 00:26:27,    163,    0.0,    4.9,   0.00,   0.00, 1012.8,   76.2, -999.0
03-03-2022, 00:26:37,    163,    0.2,    4.9,   0.00,   0.00, 1012.9,   76.3, -999.0
03-03-2022, 00:26:47,    162,    0.3,    4.9,   0.00,   0.00, 1012.9,   76.4, -999.0
03-03-2022, 00:26:57,    121,    0.6,    4.9,   0.00,   0.00, 1012.9,   76.5, -999.0
03-03-2022, 00:27:07,    144,    0.8,    5.0,   0.00,   0.00, 1012.9,   76.6, -999.0
03-03-2022, 00:27:17,    143,    1.0,    4.9,   0.00,   0.00, 1012.9,   76.7, -999.0
03-03-2022, 00:27:27,    143,    0.2,    4.9,   0.00,   0.00, 1012.9,   76.3, -999.0
03-03-2022, 00:27:37,    143,    0.2,    4.9,   0.00,   0.00, 1012.9,   76.2, -999.0
03-03-2022, 00:27:46,    143,    0.0,    4.9,   0.00,   0.00, 1012.8,   76.3, -999.0
03-03-2022, 00:27:56,    142,    0.0,    4.9,   0.00,   0.00, 1012.8,   76.4, -999.0
03-03-2022, 00:28:07,    143,    0.0,    4.8,   0.00,   0.00, 1012.8,   76.6, -999.0
03-03-2022, 00:28:16,    143,    0.0,    4.8,   0.00,   0.00, 1012.8,   76.6, -999.0
03-03-2022, 00:28:26,    141,    0.2,    4.9,   0.00,   0.00, 1012.8,   76.7, -999.0
03-03-2022, 00:28:36,    145,    0.4,    5.0,   0.00,   0.00, 1012.9,   76.7, -999.0
03-03-2022, 00:28:46,    146,    0.2,    5.0,   0.00,   0.00, 1012.9,   76.7, -999.0
03-03-2022, 00:28:56,    112,    0.3,    4.9,   0.00,   0.00, 1012.8,   76.4, -999.0
03-03-2022, 00:29:06,    125,    0.6,    4.9,   0.00,   0.00, 1012.9,   76.5, -999.0
03-03-2022, 00:29:16,    125,    0.2,    5.0,   0.00,   0.00, 1012.8,   76.5, -999.0
03-03-2022, 00:29:26,    125,    0.1,    4.9,   0.00,   0.00, 1012.8,   76.8, -999.0
03-03-2022, 00:29:36,    125,    0.0,    4.9,   0.00,   0.00, 1012.7,   76.5, -999.0
03-03-2022, 00:29:46,    125,    0.0,    4.9,   0.00,   0.00, 1012.7,   76.4, -999.0
03-03-2022, 00:29:56,    125,    0.0,    4.9,   0.00,   0.00, 1012.7,   76.5, -999.0
03-03-2022, 00:30:06,    125,    0.0,    4.9,   0.00,   0.00, 1012.7,   76.5, -999.0
03-03-2022, 00:30:16,    125,    0.0,    4.9,   0.00,   0.00, 1012.7,   76.6, -999.0
03-03-2022, 00:30:25,    125,    0.0,    5.0,   0.00,   0.00, 1012.7,   76.6, -999.0
03-03-2022, 00:30:36,    125,    0.0,    5.0,   0.00,   0.00, 1012.7,   76.7, -999.0
03-03-2022, 00:30:46,    125,    0.0,    5.0,   0.00,   0.00, 1012.7,   76.8, -999.0
03-03-2022, 00:30:55,    125,    0.0,    5.1,   0.00,   0.00, 1012.8,   77.1, -999.0
03-03-2022, 00:31:05,    125,    0.0,    5.2,   0.00,   0.00, 1012.7,   77.0, -999.0
03-03-2022, 00:31:16,    124,    0.0,    5.1,   0.00,   0.00, 1012.7,   76.9, -999.0
03-03-2022, 00:31:25,    124,    0.0,    5.2,   0.00,   0.00, 1012.7,   76.9, -999.0
03-03-2022, 00:31:35,    124,    0.0,    5.2,   0.00,   0.00, 1012.7,   76.8, -999.0
03-03-2022, 00:31:45,    125,    0.0,    5.2,   0.00,   0.00, 1012.7,   76.8, -999.0
03-03-2022, 00:31:55,    124,    0.0,    5.2,   0.00,   0.00, 1012.7,   76.6, -999.0
03-03-2022, 00:32:05,    125,    0.0,    5.2,   0.00,   0.00, 1012.7,   76.7, -999.0
03-03-2022, 00:32:15,    124,    0.0,    5.2,   0.00,   0.00, 1012.7,   76.6, -999.0
03-03-2022, 00:32:25,    133,    0.0,    5.1,   0.00,   0.00, 1012.7,   76.4, -999.0
03-03-2022, 00:32:35,    133,    0.0,    5.0,   0.00,   0.00, 1012.7,   76.1, -999.0
03-03-2022, 00:32:45,    134,    0.0,    5.0,   0.00,   0.00, 1012.7,   76.1, -999.0
03-03-2022, 00:32:55,    144,    0.0,    4.9,   0.00,   0.00, 1012.7,   76.0, -999.0
03-03-2022, 00:33:05,    145,    0.0,    4.9,   0.00,   0.00, 1012.7,   75.8, -999.0
03-03-2022, 00:33:15,    140,    0.9,    5.0,   0.00,   0.00, 1012.8,   76.5, -999.0
03-03-2022, 00:33:25,    139,    0.8,    5.0,   0.00,   0.00, 1012.8,   76.3, -999.0
03-03-2022, 00:33:34,    109,    0.9,    5.1,   0.00,   0.00, 1012.9,   76.4, -999.0
03-03-2022, 00:33:45,    130,    0.9,    5.1,   0.00,   0.00, 1012.9,   76.5, -999.0
03-03-2022, 00:33:55,    124,    1.5,    5.1,   0.00,   0.00, 1012.9,   77.0, -999.0
03-03-2022, 00:34:04,    124,    0.4,    5.1,   0.00,   0.00, 1012.8,   76.6, -999.0
03-03-2022, 00:34:15,    124,    0.3,    5.1,   0.00,   0.00, 1012.8,   76.8, -999.0
03-03-2022, 00:34:25,    124,    0.0,    5.2,   0.00,   0.00, 1012.7,   76.7, -999.0
03-03-2022, 00:34:34,    124,    0.0,    5.1,   0.00,   0.00, 1012.7,   76.6, -999.0
03-03-2022, 00:34:44,    124,    0.0,    5.1,   0.00,   0.00, 1012.7,   76.5, -999.0
03-03-2022, 00:34:54,    124,    0.0,    5.1,   0.00,   0.00, 1012.7,   76.5, -999.0
03-03-2022, 00:35:04,    124,    0.0,    5.1,   0.00,   0.00, 1012.7,   76.3, -999.0
03-03-2022, 00:35:14,    124,    0.0,    5.0,   0.00,   0.00, 1012.7,   76.2, -999.0
03-03-2022, 00:35:24,    124,    0.0,    5.0,   0.00,   0.00, 1012.7,   76.4, -999.0
03-03-2022, 00:35:34,    123,    1.1,    5.0,   0.00,   0.00, 1012.8,   76.4, -999.0
03-03-2022, 00:35:44,    123,    0.0,    5.1,   0.00,   0.00, 1012.7,   76.4, -999.0
03-03-2022, 00:35:54,    166,    0.1,    5.0,   0.00,   0.00, 1012.8,   76.5, -999.0
03-03-2022, 00:36:04,    159,    1.1,    5.0,   0.00,   0.00, 1012.9,   76.5, -999.0
03-03-2022, 00:36:14,    161,    0.6,    5.0,   0.00,   0.00, 1012.8,   76.3, -999.0
03-03-2022, 00:36:24,    161,    0.1,    4.8,   0.00,   0.00, 1012.7,   76.0, -999.0
03-03-2022, 00:36:34,    161,    0.9,    4.9,   0.00,   0.00, 1012.9,   76.3, -999.0
03-03-2022, 00:36:44,    161,    0.0,    4.9,   0.00,   0.00, 1012.7,   76.0, -999.0
03-03-2022, 00:36:54,    162,    0.0,    4.9,   0.00,   0.00, 1012.7,   76.1, -999.0
03-03-2022, 00:37:04,     87,    0.6,    4.9,   0.00,   0.00, 1012.7,   76.2, -999.0
03-03-2022, 00:37:13,    128,    1.7,    5.0,   0.00,   0.00, 1012.8,   77.1, -999.0
03-03-2022, 00:37:24,    127,    0.2,    5.0,   0.00,   0.00, 1012.7,   76.8, -999.0
03-03-2022, 00:37:33,    127,    0.0,    4.9,   0.00,   0.00, 1012.7,   76.6, -999.0
03-03-2022, 00:37:43,    127,    0.0,    4.9,   0.00,   0.00, 1012.7,   76.6, -999.0
03-03-2022, 00:37:53,    127,    0.0,    4.9,   0.00,   0.00, 1012.7,   76.5, -999.0
03-03-2022, 00:38:05,    127,    0.0,    4.9,   0.00,   0.00, 1012.6,   76.4, -999.0
03-03-2022, 00:38:13,    127,    0.0,    4.8,   0.00,   0.00, 1012.6,   76.4, -999.0
03-03-2022, 00:38:23,    127,    0.0,    4.9,   0.00,   0.00, 1012.7,   76.5, -999.0
03-03-2022, 00:38:33,    128,    0.0,    4.9,   0.00,   0.00, 1012.7,   76.7, -999.0
03-03-2022, 00:38:43,    129,    0.0,    4.9,   0.00,   0.00, 1012.7,   76.7, -999.0
03-03-2022, 00:38:53,    129,    0.0,    4.9,   0.00,   0.00, 1012.7,   76.6, -999.0
03-03-2022, 00:39:03,    129,    0.0,    4.9,   0.00,   0.00, 1012.6,   76.7, -999.0
03-03-2022, 00:39:13,    129,    0.0,    4.9,   0.00,   0.00, 1012.6,   76.7, -999.0
03-03-2022, 00:39:23,    129,    0.0,    4.9,   0.00,   0.00, 1012.7,   76.6, -999.0
03-03-2022, 00:39:33,    129,    0.0,    4.8,   0.00,   0.00, 1012.6,   76.7, -999.0
03-03-2022, 00:39:43,    129,    0.0,    4.8,   0.00,   0.00, 1012.7,   76.9, -999.0
03-03-2022, 00:39:53,    128,    0.2,    5.0,   0.00,   0.00, 1012.7,   77.1, -999.0
03-03-2022, 00:40:03,    128,    0.2,    5.0,   0.00,   0.00, 1012.7,   77.3, -999.0
03-03-2022, 00:40:12,    131,    0.1,    5.0,   0.00,   0.00, 1012.7,   77.1, -999.0
03-03-2022, 00:40:22,    131,    0.0,    5.0,   0.00,   0.00, 1012.7,   77.0, -999.0
03-03-2022, 00:40:33,    131,    0.3,    5.0,   0.00,   0.00, 1012.7,   77.0, -999.0
03-03-2022, 00:40:42,    131,    0.8,    5.2,   0.00,   0.00, 1012.8,   77.3, -999.0
03-03-2022, 00:40:52,    133,    0.9,    5.1,   0.00,   0.00, 1012.8,   77.5, -999.0
03-03-2022, 00:41:03,    133,    0.9,    5.1,   0.00,   0.00, 1012.8,   77.2, -999.0
03-03-2022, 00:41:12,    129,    1.2,    5.1,   0.00,   0.00, 1012.8,   77.3, -999.0
03-03-2022, 00:41:22,    130,    0.5,    5.1,   0.00,   0.00, 1012.8,   77.0, -999.0
03-03-2022, 00:41:32,    141,    0.6,    5.2,   0.00,   0.00, 1012.8,   77.2, -999.0
03-03-2022, 00:41:42,    141,    0.3,    5.1,   0.00,   0.00, 1012.7,   77.0, -999.0
03-03-2022, 00:41:52,    141,    0.0,    5.0,   0.00,   0.00, 1012.6,   76.7, -999.0
03-03-2022, 00:42:02,    140,    0.0,    5.0,   0.00,   0.00, 1012.6,   76.6, -999.0
03-03-2022, 00:42:12,    139,    0.0,    5.1,   0.00,   0.00, 1012.6,   76.8, -999.0
03-03-2022, 00:42:22,    136,    0.6,    5.2,   0.00,   0.00, 1012.7,   77.0, -999.0
03-03-2022, 00:42:32,    136,    0.1,    5.1,   0.00,   0.00, 1012.7,   76.8, -999.0
03-03-2022, 00:42:42,    135,    0.2,    5.2,   0.00,   0.00, 1012.7,   76.8, -999.0
03-03-2022, 00:42:52,    121,    1.6,    5.1,   0.00,   0.00, 1012.8,   77.2, -999.0
03-03-2022, 00:43:02,    125,    0.3,    5.1,   0.00,   0.00, 1012.7,   76.9, -999.0
03-03-2022, 00:43:12,    126,    0.4,    5.1,   0.00,   0.00, 1012.7,   76.8, -999.0
03-03-2022, 00:43:21,    135,    0.9,    5.2,   0.00,   0.00, 1012.8,   76.8, -999.0
03-03-2022, 00:43:32,    135,    0.0,    5.1,   0.00,   0.00, 1012.7,   76.7, -999.0
03-03-2022, 00:43:42,    141,    0.0,    5.1,   0.00,   0.00, 1012.6,   76.4, -999.0
03-03-2022, 00:43:51,    140,    0.0,    5.0,   0.00,   0.00, 1012.6,   76.3, -999.0
03-03-2022, 00:44:01,    140,    0.0,    5.0,   0.00,   0.00, 1012.6,   76.2, -999.0
03-03-2022, 00:44:12,    140,    0.0,    5.0,   0.00,   0.00, 1012.6,   76.3, -999.0
03-03-2022, 00:44:21,    140,    0.0,    5.0,   0.00,   0.00, 1012.6,   76.6, -999.0
03-03-2022, 00:44:31,    140,    0.0,    5.1,   0.00,   0.00, 1012.6,   76.5, -999.0
03-03-2022, 00:44:41,    140,    0.0,    4.9,   0.00,   0.00, 1012.6,   76.6, -999.0
03-03-2022, 00:44:51,    139,    0.1,    5.0,   0.00,   0.00, 1012.7,   76.7, -999.0
03-03-2022, 00:45:01,    139,    1.1,    5.0,   0.00,   0.00, 1012.7,   76.7, -999.0
03-03-2022, 00:45:11,    139,    0.1,    5.1,   0.00,   0.00, 1012.6,   76.6, -999.0
03-03-2022, 00:45:21,    139,    0.0,    5.1,   0.00,   0.00, 1012.6,   76.5, -999.0
03-03-2022, 00:45:31,    139,    0.0,    5.0,   0.00,   0.00, 1012.6,   76.5, -999.0
03-03-2022, 00:45:41,    138,    1.1,    5.0,   0.00,   0.00, 1012.8,   76.9, -999.0
03-03-2022, 00:45:51,    120,    1.0,    5.1,   0.00,   0.00, 1012.7,   76.6, -999.0
03-03-2022, 00:46:01,    119,    0.0,    5.0,   0.00,   0.00, 1012.6,   76.5, -999.0
03-03-2022, 00:46:11,    120,    0.0,    5.0,   0.00,   0.00, 1012.6,   76.6, -999.0
03-03-2022, 00:46:21,    120,    0.0,    5.0,   0.00,   0.00, 1012.6,   76.7, -999.0
03-03-2022, 00:46:30,    121,    0.0,    5.1,   0.00,   0.00, 1012.7,   76.6, -999.0
03-03-2022, 00:46:41,    119,    0.0,    5.0,   0.00,   0.00, 1012.6,   76.5, -999.0